TimeMST,TemperatureF,Dew PointF,Humidity,Sea Level PressureIn,VisibilityMPH,Wind Direction,Wind SpeedMPH,Gust SpeedMPH,PrecipitationIn,Events,Conditions,WindDirDegrees,DateUTC
12:53 AM,1.0,-5.1,75,30.43,10.0,SSW,5.8,-,N/A,,Clear,200,2013-01-04 07:53:00
1:53 AM,-4.0,-9.0,79,30.43,10.0,Calm,Calm,-,N/A,,Clear,0,2013-01-04 08:53:00
2:53 AM,-7.1,-11.0,83,30.43,10.0,Calm,Calm,-,N/A,,Clear,0,2013-01-04 09:53:00
3:53 AM,-7.1,-11.9,79,30.43,10.0,Calm,Calm,-,N/A,,Clear,0,2013-01-04 10:53:00
4:53 AM,-6.0,-11.0,79,30.44,10.0,SSW,5.8,-,N/A,,Clear,210,2013-01-04 11:53:00
6:53 AM,-9.0,-14.1,79,30.46,10.0,Calm,Calm,-,N/A,,Clear,0,2013-01-04 13:53:00
7:53 AM,-8.0,-13.0,79,30.45,10.0,Calm,Calm,-,N/A,,Clear,0,2013-01-04 14:53:00
8:53 AM,-4.0,-8.0,83,30.47,10.0,South,3.5,-,N/A,,Clear,180,2013-01-04 15:53:00
9:53 AM,-0.0,-6.0,76,30.44,10.0,Calm,Calm,-,N/A,,Clear,0,2013-01-04 16:53:00
10:53 AM,5.0,-2.0,73,30.44,10.0,Calm,Calm,-,N/A,,Clear,0,2013-01-04 17:53:00
11:53 AM,12.0,1.0,61,30.40,10.0,Calm,Calm,-,0.00,,Clear,0,2013-01-04 18:53:00
12:53 PM,14.0,3.9,64,30.33,10.0,Calm,Calm,-,N/A,,Clear,0,2013-01-04 19:53:00
1:53 PM,18.0,6.1,60,30.32,10.0,Calm,Calm,-,N/A,,Clear,0,2013-01-04 20:53:00
2:53 PM,18.0,6.1,60,30.32,10.0,NE,3.5,-,N/A,,Clear,50,2013-01-04 21:53:00
3:53 PM,18.0,6.1,60,30.32,10.0,Calm,Calm,-,N/A,,Clear,0,2013-01-04 22:53:00
4:53 PM,10.0,3.0,73,30.37,10.0,East,3.5,-,N/A,,Clear,80,2013-01-04 23:53:00
5:53 PM,5.0,-0.9,76,30.41,10.0,Calm,Calm,-,N/A,,Clear,0,2013-01-05 00:53:00
6:53 PM,5.0,-0.0,80,30.43,10.0,NE,6.9,-,N/A,,Clear,40,2013-01-05 01:53:00
7:53 PM,5.0,-0.0,80,30.43,10.0,Calm,Calm,-,N/A,,Clear,0,2013-01-05 02:53:00
8:53 PM,1.9,-2.0,83,30.43,10.0,SSW,4.6,-,N/A,,Clear,200,2013-01-05 03:53:00
9:53 PM,3.0,-0.9,84,30.41,10.0,South,5.8,-,N/A,,Clear,190,2013-01-05 04:53:00
10:53 PM,-0.9,-4.0,87,30.41,10.0,SE,4.6,-,N/A,,Clear,130,2013-01-05 05:53:00
11:53 PM,-5.1,-8.0,87,30.39,10.0,Calm,Calm,-,N/A,,Clear,0,2013-01-05 06:53:00